Regional Weather Roundup
Issued by NWS

Home | Current Version | Previous Version | Text Only | Print | Product List | Glossary On
Versions: 1 2 3 4 5 6 7 8 9 10 11 12 13 14 15 16 17 18 19 20 21 22 23 24 25 26 27 28
000
ASUS45 KCYS 240310
RWRWY

WYOMING REGIONAL WEATHER ROUNDUP
NATIONAL WEATHER SERVICE CHEYENNE WY
800 PM MST MON JAN 23 2017

NOTE:  "FAIR" INDICATES FEW OR NO CLOUDS BELOW 12,000 FEET
WITH NO SIGNIFICANT WEATHER AND/OR OBSTRUCTIONS TO VISIBILITY.

WYZ001-240400-
YELLOWSTONE NATIONAL PARK

CITY           SKY/WX    TMP DP  RH WIND       PRES   REMARKS
LK YELLOWSTONE   N/A     20  13  74 VRB5      29.48R WCI  13
W YELLOWSTONE  NOT AVBL

$$
WYZ002>013-054>058-071-098>099-240400-
NORTHERN WYOMING

CITY           SKY/WX    TMP DP  RH WIND       PRES   REMARKS
JACKSON        LGT SNOW  25  25 100 N10       29.43  WCI  15
CODY           CLOUDY    20  17  88 NW16      29.63S FOG     WCI   6
GREYBULL       CLOUDY    21  16  81 NW15      29.61F WCI   8
WORLAND        CLOUDY    23  20  88 N7        29.62R WCI  15
SHERIDAN       CLOUDY    19  17  92 W9        29.73S WCI   8
BUFFALO        CLOUDY    18  14  84 N18G25    29.65S WCI   2
GILLETTE       CLOUDY    16  15  96 N13       29.67R FOG     WCI   2
HULETT         FOG       19  18  93 MISG      29.68S VSB<1/4
NEWCASTLE      MOCLDY    28  28 100 SE9       29.62R WCI  20

$$
WYZ014>020-022>026-101>103-240400-
CENTRAL WYOMING

CITY           SKY/WX    TMP DP  RH WIND       PRES   REMARKS
BIG PINEY      LGT SNOW  20  18  92 CALM      29.44S FOG
PINEDALE       LGT SNOW  23  21  93 SE3       29.44R
DUBOIS         NOT AVBL
LANDER         SNOW      24  23  96 NW5       29.52S VSB 1/2 WCI  18
RIVERTON       LGT SNOW  24  22  91 N14       29.53S VSB 3/4 WCI  12
CASPER         LGT SNOW  24  22  91 N20       29.53S FOG     WCI  10
DOUGLAS        CLOUDY    31  23  72 E8        29.57S WCI  23

$$
WYZ021-027>030-104>119-240400-
SOUTHERN WYOMING

CITY           SKY/WX    TMP DP  RH WIND       PRES   REMARKS
EVANSTON       LGT SNOW  21  17  84 SW18      29.48R FOG     WCI   6
ROCK SPRINGS   LGT SNOW  24  23  96 SW6       29.46S FOG     WCI  17
RAWLINS        FAIR      29  19  66 SW14G21   29.46S WCI  18
LARAMIE        LGT SNOW  26  26 100 SW7       29.52R VSB 1   WCI  18
CHEYENNE       CLOUDY    32  30  92 E9        29.52F WCI  24
TORRINGTON     CLOUDY    34  27  75 NE10      29.56S WCI  26

$$




USA.gov is the U.S. government's official web portal to all federal, state and local government web resources and services.